THORAD DELTA 1 DEB, 8436

Orbit data source: Space-Track

THORAD DELTA 1 DEB, 8436 is space debris in SSO originally from a launch on Fri, 15 Nov 1974 UTC launched from the Air Force Western Test Range (AFWTR). Debris objects in space refer to the collection of defunct objects orbiting the Earth. Examples of debris include non-operational satellites, rocket bodies, and fragments generated from explosions, collisions, or faulty payload assembly.

Loading next visibility...
Identifier
8436, 1974-089CM
Orbit
SSO
Country
Flag of USUS
Related business
Manufacturer
Unknown
Mission
Spacecraft
Bus & Motor
Unknown
Mass
Unknown
Launch date (UTC)
1974-11-15 (52 years ago)
Launch vehicle
Unknown
Launch site
Air Force Western Test Range (AFWTR)
Object type
Payload
Rocket body
Debris
Shape & HBR
Unknown shape, 0.2 m
Radar Cross Section
Medium (>0.1 m² and <1 m²)

Expand to show TLE details & history
Last TLE update: 6 days ago

TLE from 6 days ago
0 THORAD DELTA 1 DEB
1 08436U 74089CM  26154.27814669 -.00000031  00000-0  91906-4 0  9994
2 08436 101.7782 265.8294 0087600  83.1648 346.2675 12.35434532324965
Epoch: 2026-06-03T06:40Z
TLE epoch observation values (Epoch: 2026-06-03T06:40:31.874Z)
Latitude
66.30117°
Longitude
-114.25206°
Altitude
1,470.068 km
Speed
7.164 km/s
True Right ascension
15h 50m 28s
True Declination
66° 11' 09"
Sunlit
Object was in daylight at epoch
Visualization orbit readout
Latitude
Unknown
Longitude
Unknown
Altitude
Unknown
Speed
Unknown
Apparent Right ascension
Unknown
Apparent Declination
Unknown
Sunlit
N/A
Visualization observer readout
Local Sidereal Time
19:18:56
Azimuth
Unknown
Elevation
Unknown
Doppler factor
Unknown
Orbital elements
Apogee altitude
1,592.803 km
Perigee altitude
1,454.365 km
Semi-major axis
7,901.721 km
Eccentricity
0.00876
Inclination
101.7782°
RAAN
265.8294°
Arg. of periapsis
83.1648°
True anomaly
346.02664°
Mean anomaly
346.2675°
Eccentric anomaly
346.14733°
Mean motion
3.09002 °/min
Orbital period
116.5 mins
BSTAR
0.000091906
Loading maneuver chart data...
Computing Atmospheric mass density...

Documentation

Showing up to 5 results
|